| time (UTC) | temp C | wind direction | speed KPH | gust KPH | rain 1hr cm | rain 24hr cm | rain mn cm | humidity % | barometer mb |
| 20260505070330 | 10 | 144 | 8.0 | 16.1 | 0.00 | 0.00 | 0.00 | 79 | 1011.2 |
| 20260505065907 | 10 | 124 | 4.8 | 17.7 | 0.00 | 0.00 | 0.00 | 78 | 1011.4 |
| 20260505065357 | 10 | 146 | 4.8 | 17.7 | 0.00 | 0.00 | 0.00 | 77 | 1011.4 |
| 20260505064839 | 10 | 171 | 8.0 | 20.9 | 0.00 | 0.00 | 0.00 | 75 | 1011.4 |
| 20260505064350 | 10 | 90 | 8.0 | 22.5 | 0.00 | 0.00 | 0.00 | 74 | 1011.4 |
| 20260505063857 | 10 | 145 | 11.3 | 22.5 | 0.00 | 0.00 | 0.00 | 74 | 1011.4 |
| 20260505063338 | 10 | 142 | 12.9 | 22.5 | 0.00 | 0.00 | 0.00 | 72 | 1011.4 |
| 20260505062909 | 10 | 179 | 14.5 | 24.1 | 0.00 | 0.00 | 0.00 | 72 | 1011.5 |
| 20260505062330 | 10 | 142 | 12.9 | 24.1 | 0.00 | 0.00 | 0.00 | 73 | 1011.5 |
| 20260505061842 | 10 | 156 | 11.3 | 20.9 | 0.00 | 0.00 | 0.00 | 73 | 1011.5 |
| 20260505061415 | 10 | 140 | 11.3 | 20.9 | 0.00 | 0.00 | 0.00 | 74 | 1011.6 |
| 20260505060852 | 10 | 179 | 6.4 | 24.1 | 0.00 | 0.00 | 0.00 | 74 | 1011.6 |
| 20260505060334 | 10 | 131 | 14.5 | 25.7 | 0.00 | 0.00 | 0.00 | 75 | 1011.6 |
| 20260505055838 | 10 | 125 | 12.9 | 25.7 | 0.00 | 0.00 | 0.00 | 76 | 1011.7 |
| 20260505055341 | 10 | 139 | 16.1 | 24.1 | 0.00 | 0.00 | 0.00 | 77 | 1011.7 |
| 20260505054853 | 10 | 128 | 9.7 | 24.1 | 0.00 | 0.00 | 0.00 | 76 | 1011.7 |
| 20260505054336 | 10 | 177 | 12.9 | 20.9 | 0.00 | 0.00 | 0.00 | 76 | 1011.6 |
| 20260505053847 | 10 | 163 | 12.9 | 22.5 | 0.00 | 0.00 | 0.00 | 75 | 1011.6 |
| 20260505053327 | 11 | 164 | 9.7 | 25.7 | 0.00 | 0.00 | 0.00 | 75 | 1011.6 |
| 20260505052854 | 11 | 142 | 14.5 | 30.6 | 0.00 | 0.00 | 0.00 | 73 | 1011.6 |
| 20260505052354 | 11 | 113 | 17.7 | 30.6 | 0.00 | 0.00 | 0.00 | 73 | 1011.6 |
| 20260505051833 | 11 | 177 | 11.3 | 29.0 | 0.00 | 0.00 | 0.00 | 75 | 1011.6 |
| 20260505051342 | 11 | 15 | 16.1 | 29.0 | 0.00 | 0.00 | 0.00 | 75 | 1012.0 |
| 20260505050832 | 11 | 121 | 9.7 | 29.0 | 0.00 | 0.00 | 0.00 | 75 | 1012.0 |
| 20260505050349 | 11 | 138 | 19.3 | 29.0 | 0.00 | 0.00 | 0.00 | 75 | 1012.0 |
| 20260505041353 | 11 | 48 | 12.9 | 24.1 | 0.00 | 0.00 | 0.00 | 75 | 1011.0 |
| 20260505040835 | 12 | 289 | 11.3 | 24.1 | 0.00 | 0.00 | 0.00 | 74 | 1011.0 |
| 20260505040351 | 12 | 178 | 14.5 | 24.1 | 0.00 | 0.00 | 0.00 | 69 | 1011.0 |
| 20260505035831 | 12 | 121 | 12.9 | 24.1 | 0.00 | 0.00 | 0.00 | 68 | 1010.8 |
| 20260505035355 | 12 | 142 | 11.3 | 22.5 | 0.00 | 0.00 | 0.00 | 65 | 1010.8 |
| 20260505034856 | 13 | 131 | 9.7 | 22.5 | 0.00 | 0.00 | 0.00 | 62 | 1010.8 |
| 20260505034358 | 13 | 163 | 11.3 | 27.4 | 0.00 | 0.00 | 0.00 | 62 | 1010.1 |
| 20260505033837 | 13 | 192 | 16.1 | 27.4 | 0.00 | 0.00 | 0.00 | 61 | 1010.1 |
| 20260505033345 | 13 | 123 | 12.9 | 25.7 | 0.00 | 0.00 | 0.00 | 60 | 1010.1 |
| 20260505032918 | 13 | 183 | 17.7 | 25.7 | 0.00 | 0.00 | 0.00 | 59 | 1009.5 |
| 20260505032352 | 13 | 178 | 9.7 | 22.5 | 0.00 | 0.00 | 0.00 | 58 | 1009.5 |
| 20260505031830 | 14 | 227 | 11.3 | 22.5 | 0.00 | 0.00 | 0.00 | 54 | 1009.5 |
| 20260505031341 | 14 | 215 | 14.5 | 22.5 | 0.00 | 0.00 | 0.00 | 47 | 1009.5 |
| 20260505030842 | 14 | 177 | 12.9 | 19.3 | 0.00 | 0.00 | 0.00 | 44 | 1009.5 |
| 20260505030352 | 14 | 154 | 9.7 | 17.7 | 0.00 | 0.00 | 0.00 | 44 | 1009.5 |
| 20260505025833 | 14 | 151 | 8.0 | 14.5 | 0.00 | 0.00 | 0.00 | 45 | 1009.5 |
| 20260505025348 | 14 | 152 | 4.8 | 11.3 | 0.00 | 0.00 | 0.00 | 48 | 1009.5 |
| 20260505024847 | 14 | 156 | 6.4 | 11.3 | 0.00 | 0.00 | 0.00 | 48 | 1009.5 |
| 20260505024331 | 14 | 172 | 6.4 | 8.0 | 0.00 | 0.00 | 0.00 | 48 | 1008.9 |
| 20260505023843 | 15 | 173 | 3.2 | 6.4 | 0.00 | 0.00 | 0.00 | 47 | 1008.9 |
| 20260505023355 | 15 | 150 | 3.2 | 11.3 | 0.00 | 0.00 | 0.00 | 47 | 1008.9 |
| 20260505022838 | 15 | 179 | 6.4 | 14.5 | 0.00 | 0.00 | 0.00 | 46 | 1008.7 |
| 20260505022349 | 15 | 141 | 6.4 | 14.5 | 0.00 | 0.00 | 0.00 | 45 | 1008.7 |
| 20260505021833 | 15 | 146 | 8.0 | 16.1 | 0.00 | 0.00 | 0.00 | 44 | 1008.7 |
| 20260505021344 | 15 | 198 | 6.4 | 16.1 | 0.00 | 0.00 | 0.00 | 45 | 1009.0 |
| 20260505020843 | 15 | 188 | 3.2 | 12.9 | 0.00 | 0.00 | 0.00 | 44 | 1009.0 |
| 20260505020329 | 15 | 183 | 4.8 | 11.3 | 0.00 | 0.00 | 0.00 | 45 | 1009.0 |
| 20260505015840 | 15 | 188 | 1.6 | 11.3 | 0.00 | 0.00 | 0.00 | 44 | 1008.6 |
| 20260505015406 | 16 | 198 | 4.8 | 9.7 | 0.00 | 0.00 | 0.00 | 44 | 1008.6 |
| 20260505014854 | 16 | 196 | 4.8 | 8.0 | 0.00 | 0.00 | 0.00 | 43 | 1008.6 |
| 20260505014336 | 16 | 177 | 3.2 | 8.0 | 0.00 | 0.00 | 0.00 | 43 | 1009.0 |
| 20260505013845 | 16 | 163 | 1.6 | 9.7 | 0.00 | 0.00 | 0.00 | 44 | 1009.0 |
| 20260505013412 | 15 | 186 | 4.8 | 11.3 | 0.00 | 0.00 | 0.00 | 44 | 1009.0 |
| 20260505012855 | 16 | 151 | 4.8 | 16.1 | 0.00 | 0.00 | 0.00 | 45 | 1009.2 |
| 20260505012339 | 15 | 124 | 8.0 | 16.1 | 0.00 | 0.00 | 0.00 | 44 | 1009.2 |
| 20260505011844 | 15 | 171 | 4.8 | 22.5 | 0.00 | 0.00 | 0.00 | 44 | 1009.2 |
| 20260505011355 | 15 | 151 | 6.4 | 22.5 | 0.00 | 0.00 | 0.00 | 45 | 1009.0 |
| 20260505010839 | 15 | 146 | 14.5 | 25.7 | 0.00 | 0.00 | 0.00 | 44 | 1009.0 |
| 20260505010330 | 16 | 171 | 12.9 | 25.7 | 0.00 | 0.00 | 0.00 | 44 | 1009.0 |
| 20260505005830 | 16 | 153 | 17.7 | 25.7 | 0.00 | 0.00 | 0.00 | 44 | 1009.4 |
| 20260505005358 | 16 | 121 | 16.1 | 25.7 | 0.00 | 0.00 | 0.00 | 42 | 1009.4 |
| 20260505004900 | 17 | 175 | 12.9 | 20.9 | 0.00 | 0.00 | 0.00 | 39 | 1009.4 |
| 20260505004349 | 17 | 144 | 11.3 | 16.1 | 0.00 | 0.00 | 0.00 | 38 | 1009.2 |
| 20260505003918 | 17 | 120 | 3.2 | 11.3 | 0.00 | 0.00 | 0.00 | 38 | 1009.2 |
| 20260505003337 | 17 | 154 | 4.8 | 11.3 | 0.00 | 0.00 | 0.00 | 37 | 1009.2 |
| 20260505002908 | 17 | 100 | 3.2 | 6.4 | 0.00 | 0.00 | 0.00 | 36 | 1009.5 |
| 20260505002330 | 17 | 56 | 0.0 | 6.4 | 0.00 | 0.00 | 0.00 | 36 | 1009.5 |
| 20260505001840 | 17 | 328 | 1.6 | 8.0 | 0.00 | 0.00 | 0.00 | 36 | 1009.5 |
| 20260505001342 | 17 | 302 | 4.8 | 8.0 | 0.00 | 0.00 | 0.00 | 35 | 1009.1 |
| 20260505000855 | 17 | 31 | 0.0 | 9.7 | 0.00 | 0.00 | 0.00 | 35 | 1009.1 |
| 20260505000344 | 17 | 326 | 1.6 | 11.3 | 0.00 | 0.00 | 0.00 | 36 | 1009.1 |
| 20260504235830 | 17 | 343 | 3.2 | 11.3 | 0.00 | 0.00 | 0.00 | 35 | 1009.2 |
| 20260504235353 | 17 | 5 | 3.2 | 11.3 | 0.00 | 0.00 | 0.00 | 35 | 1009.2 |
| 20260504234850 | 17 | 320 | 6.4 | 14.5 | 0.00 | 0.00 | 0.00 | 36 | 1009.2 |
| 20260504234352 | 17 | 340 | 9.7 | 16.1 | 0.00 | 0.00 | 0.00 | 36 | 1009.3 |
| 20260504233830 | 17 | 345 | 4.8 | 14.5 | 0.00 | 0.00 | 0.00 | 34 | 1009.3 |
| 20260504233406 | 18 | 325 | 4.8 | 11.3 | 0.00 | 0.00 | 0.00 | 35 | 1009.3 |
| 20260504232855 | 18 | 273 | 1.6 | 11.3 | 0.00 | 0.00 | 0.00 | 33 | 1009.1 |
| 20260504232351 | 19 | 347 | 9.7 | 11.3 | 0.00 | 0.00 | 0.00 | 34 | 1009.1 |
| 20260504231850 | 19 | 353 | 1.6 | 19.3 | 0.00 | 0.00 | 0.00 | 33 | 1009.1 |
| 20260504231349 | 18 | 48 | 8.0 | 19.3 | 0.00 | 0.00 | 0.00 | 34 | 1008.8 |
| 20260504230849 | 18 | 97 | 11.3 | 20.9 | 0.00 | 0.00 | 0.00 | 35 | 1008.8 |
| 20260504230356 | 18 | 86 | 11.3 | 20.9 | 0.00 | 0.00 | 0.00 | 35 | 1008.8 |
| 20260504225903 | 18 | 47 | 8.0 | 24.1 | 0.00 | 0.00 | 0.00 | 35 | 1009.5 |
| 20260504225351 | 18 | 124 | 12.9 | 29.0 | 0.00 | 0.00 | 0.00 | 35 | 1009.5 |
| 20260504224847 | 18 | 130 | 12.9 | 29.0 | 0.00 | 0.00 | 0.00 | 36 | 1009.5 |
| 20260504224349 | 17 | 61 | 14.5 | 29.0 | 0.00 | 0.00 | 0.00 | 35 | 1009.2 |
| 20260504223831 | 17 | 105 | 17.7 | 27.4 | 0.00 | 0.00 | 0.00 | 37 | 1009.2 |
| 20260504223339 | 17 | 82 | 12.9 | 27.4 | 0.00 | 0.00 | 0.00 | 35 | 1009.2 |
| 20260504222831 | 17 | 59 | 16.1 | 25.7 | 0.00 | 0.00 | 0.00 | 36 | 1009.6 |
| 20260504222338 | 17 | 19 | 1.6 | 22.5 | 0.00 | 0.00 | 0.00 | 35 | 1009.6 |
| 20260504221851 | 17 | 5 | 6.4 | 22.5 | 0.00 | 0.00 | 0.00 | 36 | 1009.6 |
| 20260504221352 | 17 | 356 | 12.9 | 22.5 | 0.00 | 0.00 | 0.00 | 36 | 1009.7 |
| 20260504220830 | 18 | 358 | 9.7 | 22.5 | 0.00 | 0.00 | 0.00 | 37 | 1009.7 |
| 20260504220338 | 18 | 358 | 12.9 | 19.3 | 0.00 | 0.00 | 0.00 | 35 | 1009.7 |
| 20260504215853 | 19 | 285 | 9.7 | 19.3 | 0.00 | 0.00 | 0.00 | 36 | 1009.8 |
| 20260504215335 | 19 | 300 | 6.4 | 14.5 | 0.00 | 0.00 | 0.00 | 35 | 1009.8 |
| 20260504214846 | 20 | 356 | 6.4 | 12.9 | 0.00 | 0.00 | 0.00 | 35 | 1009.8 |
| 20260504214356 | 19 | 275 | 4.8 | 14.5 | 0.00 | 0.00 | 0.00 | 34 | 1010.1 |
| 20260504213851 | 18 | 242 | 1.6 | 19.3 | 0.00 | 0.00 | 0.00 | 33 | 1010.1 |
| 20260504213351 | 19 | 210 | 9.7 | 19.3 | 0.00 | 0.00 | 0.00 | 33 | 1010.1 |
| 20260504212850 | 18 | 304 | 6.4 | 24.1 | 0.00 | 0.00 | 0.00 | 34 | 1009.9 |
| 20260504212331 | 20 | 277 | 8.0 | 24.1 | 0.00 | 0.00 | 0.00 | 31 | 1009.9 |
| 20260504211837 | 20 | 180 | 14.5 | 22.5 | 0.00 | 0.00 | 0.00 | 33 | 1009.9 |
| 20260504211348 | 21 | 140 | 12.9 | 22.5 | 0.00 | 0.00 | 0.00 | 29 | 1009.8 |
| 20260504210829 | 21 | 179 | 12.9 | 22.5 | 0.00 | 0.00 | 0.00 | 29 | 1009.8 |
| 20260504210356 | 22 | 160 | 16.1 | 27.4 | 0.00 | 0.00 | 0.00 | 31 | 1009.8 |
| 20260504205835 | 21 | 125 | 19.3 | 27.4 | 0.00 | 0.00 | 0.00 | 29 | 1009.9 |
| 20260504205401 | 21 | 185 | 11.3 | 25.7 | 0.00 | 0.00 | 0.00 | 30 | 1009.9 |
| 20260504204848 | 21 | 197 | 14.5 | 20.9 | 0.00 | 0.00 | 0.00 | 30 | 1009.9 |
| 20260504204330 | 22 | 163 | 12.9 | 20.9 | 0.00 | 0.00 | 0.00 | 31 | 1009.7 |
| 20260504203838 | 20 | 228 | 4.8 | 20.9 | 0.00 | 0.00 | 0.00 | 30 | 1009.7 |
| 20260504203345 | 20 | 234 | 14.5 | 22.5 | 0.00 | 0.00 | 0.00 | 29 | 1009.7 |
| 20260504202843 | 21 | 211 | 6.4 | 22.5 | 0.00 | 0.00 | 0.00 | 30 | 1009.9 |
| 20260504202344 | 20 | 187 | 12.9 | 19.3 | 0.00 | 0.00 | 0.00 | 31 | 1009.9 |
| 20260504201843 | 21 | 157 | 12.9 | 22.5 | 0.00 | 0.00 | 0.00 | 29 | 1009.9 |
| 20260504201353 | 21 | 162 | 9.7 | 22.5 | 0.00 | 0.00 | 0.00 | 31 | 1010.0 |
| 20260504200841 | 20 | 186 | 6.4 | 20.9 | 0.00 | 0.00 | 0.00 | 29 | 1010.0 |
| 20260504200356 | 20 | 274 | 11.3 | 25.7 | 0.00 | 0.00 | 0.00 | 29 | 1010.0 |
| 20260504195852 | 21 | 200 | 8.0 | 25.7 | 0.00 | 0.00 | 0.00 | 32 | 1010.7 |
| 20260504195352 | 21 | 221 | 9.7 | 19.3 | 0.00 | 0.00 | 0.00 | 32 | 1010.7 |
| 20260504194853 | 22 | 165 | 11.3 | 20.9 | 0.00 | 0.00 | 0.00 | 28 | 1010.7 |
| 20260504194331 | 21 | 212 | 11.3 | 20.9 | 0.00 | 0.00 | 0.00 | 34 | 1010.3 |
| 20260504193842 | 21 | 189 | 9.7 | 19.3 | 0.00 | 0.00 | 0.00 | 33 | 1010.3 |
| 20260504193350 | 21 | 165 | 6.4 | 19.3 | 0.00 | 0.00 | 0.00 | 30 | 1010.3 |
| 20260504192858 | 19 | 177 | 1.6 | 24.1 | 0.00 | 0.00 | 0.00 | 35 | 1010.9 |
| 20260504192340 | 21 | 181 | 16.1 | 24.1 | 0.00 | 0.00 | 0.00 | 31 | 1010.9 |
| 20260504191841 | 20 | 221 | 1.6 | 17.7 | 0.00 | 0.00 | 0.00 | 31 | 1010.9 |
| 20260504191351 | 20 | 133 | 11.3 | 24.1 | 0.00 | 0.00 | 0.00 | 33 | 1010.6 |
| 20260504190854 | 21 | 140 | 11.3 | 24.1 | 0.00 | 0.00 | 0.00 | 32 | 1010.6 |
| 20260504190334 | 20 | 145 | 9.7 | 22.5 | 0.00 | 0.00 | 0.00 | 33 | 1010.6 |
| 20260504185842 | 20 | 200 | 12.9 | 17.7 | 0.00 | 0.00 | 0.00 | 32 | 1011.2 |
| 20260504185350 | 19 | 140 | 6.4 | 17.7 | 0.00 | 0.00 | 0.00 | 34 | 1011.2 |
| 20260504184847 | 19 | 136 | 1.6 | 19.3 | 0.00 | 0.00 | 0.00 | 35 | 1011.2 |
| 20260504184348 | 19 | 163 | 14.5 | 19.3 | 0.00 | 0.00 | 0.00 | 35 | 1011.0 |
| 20260504183914 | 19 | 138 | 6.4 | 20.9 | 0.00 | 0.00 | 0.00 | 35 | 1011.0 |
| 20260504183336 | 19 | 190 | 12.9 | 20.9 | 0.00 | 0.00 | 0.00 | 33 | 1011.0 |
| 20260504182845 | 19 | 218 | 9.7 | 17.7 | 0.00 | 0.00 | 0.00 | 35 | 1011.2 |
| 20260504182352 | 19 | 167 | 1.6 | 24.1 | 0.00 | 0.00 | 0.00 | 33 | 1011.2 |
| 20260504181828 | 20 | 133 | 8.0 | 24.1 | 0.00 | 0.00 | 0.00 | 34 | 1011.2 |
| 20260504181353 | 18 | 179 | 6.4 | 24.1 | 0.00 | 0.00 | 0.00 | 32 | 1011.2 |
| 20260504180850 | 18 | 104 | 11.3 | 24.1 | 0.00 | 0.00 | 0.00 | 36 | 1011.2 |
| 20260504180346 | 19 | 171 | 9.7 | 20.9 | 0.00 | 0.00 | 0.00 | 34 | 1011.2 |
| 20260504175847 | 19 | 121 | 12.9 | 20.9 | 0.00 | 0.00 | 0.00 | 35 | 1011.7 |
| 20260504175352 | 18 | 110 | 8.0 | 19.3 | 0.00 | 0.00 | 0.00 | 35 | 1011.7 |
| 20260504174857 | 18 | 182 | 9.7 | 19.3 | 0.00 | 0.00 | 0.00 | 34 | 1011.7 |
| 20260504174351 | 18 | 152 | 9.7 | 20.9 | 0.00 | 0.00 | 0.00 | 36 | 1011.7 |
| 20260504173827 | 19 | 160 | 11.3 | 20.9 | 0.00 | 0.00 | 0.00 | 36 | 1011.7 |
| 20260504173356 | 18 | 138 | 14.5 | 19.3 | 0.00 | 0.00 | 0.00 | 36 | 1011.7 |
| 20260504172833 | 18 | 148 | 14.5 | 16.1 | 0.00 | 0.00 | 0.00 | 36 | 1011.7 |
| 20260504172338 | 18 | 131 | 8.0 | 16.1 | 0.00 | 0.00 | 0.00 | 36 | 1011.7 |
| 20260504171851 | 18 | 138 | 6.4 | 16.1 | 0.00 | 0.00 | 0.00 | 37 | 1011.7 |
| 20260504171331 | 17 | 171 | 12.9 | 19.3 | 0.00 | 0.00 | 0.00 | 37 | 1012.0 |
| 20260504170838 | 17 | 124 | 11.3 | 20.9 | 0.00 | 0.00 | 0.00 | 36 | 1012.0 |
| 20260504170343 | 18 | 162 | 8.0 | 22.5 | 0.00 | 0.00 | 0.00 | 36 | 1012.0 |
| 20260504160349 | 16 | 164 | 1.6 | 9.7 | 0.00 | 0.00 | 0.00 | 43 | 1011.8 |
| 20260504150841 | 14 | 131 | 3.2 | 8.0 | 0.00 | 0.00 | 0.00 | 48 | 1012.7 |
| 20260504150352 | 13 | 141 | 0.0 | 8.0 | 0.00 | 0.00 | 0.00 | 50 | 1012.7 |
| 20260504140857 | 13 | 159 | 3.2 | 8.0 | 0.00 | 0.00 | 0.00 | 51 | 1012.3 |
| 20260504140331 | 12 | 141 | 3.2 | 8.0 | 0.00 | 0.00 | 0.00 | 50 | 1012.3 |
| 20260504130333 | 12 | 144 | 3.2 | 11.3 | 0.00 | 0.00 | 0.00 | 47 | 1012.7 |
| 20260504110350 | 12 | 164 | 6.4 | 17.7 | 0.00 | 0.00 | 0.00 | 51 | 1012.8 |
| 20260504100347 | 12 | 133 | 3.2 | 11.3 | 0.00 | 0.00 | 0.00 | 41 | 1012.5 |
| 20260504081846 | 12 | 65 | 3.2 | 6.4 | 0.00 | 0.00 | 0.00 | 39 | 1012.3 |
| 20260504081348 | 12 | 75 | 3.2 | 9.7 | 0.00 | 0.00 | 0.00 | 38 | 1012.6 |
| 20260504080850 | 12 | 103 | 4.8 | 11.3 | 0.00 | 0.00 | 0.00 | 40 | 1012.6 |
| 20260504080354 | 12 | 132 | 4.8 | 12.9 | 0.00 | 0.00 | 0.00 | 40 | 1012.6 |